Miscellaneous Local Product
Issued by NWS North Platte, NE

Home | Current Version | Previous Version | Text Only | Print | Product List | Glossary On
Versions: 1 2 3 4 5 6 7 8 9 10 11 12 13 14 15 16 17 18 19 20 21 22 23 24 25 26 27 28 29 30 31 32 33 34 35 36 37 38 39 40 41 42 43 44 45 46 47 48 49 50
302
AXUS43 KLBF 240910
MISLBF


WESTERN AND NORTH CENTRAL NEBRASKA HOURLY WEATHER ROUNDUP
NATIONAL WEATHER SERVICE NORTH PLATTE NE
400 AM CDT TUE APR 24 2018

NOTE: "FAIR" INDICATES FEW OR NO CLOUDS BELOW 12,000 FEET WITH NO
SIGNIFICANT WEATHER AND/OR OBSTRUCTIONS TO VISIBILITY.

NOTE: STATIONS NOT REPORTING VARIABLES SUCH AS SKY/WEATHER OR
PRESSURE ARE PROVIDED BY RAWS AND APRS NETWORKS AND ARE NOT UNDER
NATIONAL WEATHER SERVICE QUALITY CONTROL.

...OBSERVATIONS IN AND NEAR THE EASTERN PANHANDLE OF NEBRASKA...

CITY           SKY/WX    TMP DP  RH WIND       PRES   REMARKS
PINE RIDGE     CLOUDY    39  35  86 N16G28    30.30R WCI  30
GORDON         CLOUDY    38  35  87 NW20G28   30.27R WCI  29
CHADRON        CLOUDY    37  33  85 NW20G28   30.32R WCI  27
ALLIANCE       CLOUDY    37  34  89 N15       30.27R WCI  28
SIDNEY         CLOUDY    36  33  89 NW23G33   30.29R WCI  24
CRESCENT LAKE    N/A     38  34  86 NW17G26     N/A  WCI  28
$$

...OBSERVATIONS IN NORTHERN NEBRASKA AND FAR SOUTHERN SOUTH DAKOTA...

CITY           SKY/WX    TMP DP  RH WIND       PRES   REMARKS
WINNER         MOCLDY    47  41  80 W15G25    30.15F
VALENTINE      CLOUDY    42  39  89 NW20G29   30.19R
AINSWORTH      CLOUDY    45  43  94 NW18G25   30.17R
O`NEILL        CLOUDY    56  39  52 S3        30.14R
THEDFORD       CLOUDY    45  42  89 NW16G22   30.20R
BROKEN BOW     CLOUDY    54  45  71 NW10      30.13R
ORD            CLOUDY    45  41  86 CALM      30.10S
ALBION         CLOUDY    50  37  59 SE5       30.11F
VALENTINE NWR    N/A     43  41  93 NW15G24     N/A
HALSEY           N/A     49  49  99 NW8         N/A
BUTTE            N/A     51  40  67 CALM        N/A
CHAMBERS         N/A     52  41  65 CALM        N/A
EWING            N/A     48  39  70 CALM        N/A
$$

...OBSERVATIONS IN SOUTHWEST NEBRASKA AND FAR NORTHEAST COLORADO...

CITY           SKY/WX    TMP DP  RH WIND       PRES   REMARKS
WRAY           CLOUDY    41  36  81 N24G33    30.24R
HOLYOKE        DRIZZLE   41  36  81 N24G30    30.25R
IMPERIAL       CLOUDY    41  39  93 NW21G32   30.21R
OGALLALA       LGT RAIN  42  39  88 NW29G35   30.21F
NORTH PLATTE   CLOUDY    51  45  79 N14       30.19R
MCCOOK         CLOUDY    48  42  80 SW7       30.13F
LEXINGTON      MOCLDY    46  40  82 NW10      30.14R
STAPLETON        N/A     47  43  86 W3G12       N/A
GOTHENBURG       N/A     51  39  63 NW5         N/A
CALLAWAY         N/A     52  46  79 NW13        N/A
$$

...OBSERVATIONS IN CENTRAL LINCOLN COUNTY AREA...

CITY           SKY/WX    TMP DP  RH WIND       PRES   REMARKS
N.P. AIRPORT   CLOUDY    51  45  79 N14       30.19R
N.P. DOWNTOWN    N/A     49  43  81 NW8G18      N/A
N.P. SOUTHEAST   N/A     50  44  79 NW8G20      N/A
N.P. HILLCREST   N/A     48  42  81 NW17G26     N/A
$$

...OBSERVATIONS ACROSS THE ROCKIES AND WESTERN HIGH PLAINS...

CITY           SKY/WX    TMP DP  RH WIND       PRES   REMARKS
RAPID CITY     LGT SNOW  34  32  92 NW30G40   30.32R FOG     WCI  20
SCOTTSBLUFF    CLOUDY    38  33  82 NW17      30.32R WCI  28
CHEYENNE       LGT SNOW  30  28  92 MISG      30.30S FOG
DENVER         LGT SNOW  35  32  88 NE13      30.32R FOG     WCI  26
BERTHOUD PASS  CLOUDY    23  12  63 W13G22    30.36F WCI  11
MONARCH PASS   CLEAR     30  23  74 SW21G28   30.46S WCI  17
ASPEN          CLOUDY    41  36  82 SE10      30.26F
STEAMBOAT      FAIR      38  32  77 S3        30.24S
LARAMIE        CLOUDY    29  25  85 N14       30.31S WCI  18
CASPER         CLOUDY    31  28  89 NE10      30.42S WCI  22
$$

...OBSERVATIONS ACROSS THE NORTHERN PLAINS...

CITY           SKY/WX    TMP DP  RH WIND       PRES   REMARKS
BISMARCK       LGT RAIN  41  35  79 N13G24    30.36R
FARGO          LGT RAIN  47  38  71 N16       30.23R
PIERRE         CLOUDY    49  46  90 S6        30.07F
SIOUX FALLS    CLOUDY    47  41  80 NE6       30.13F
$$

...OBSERVATIONS ACROSS THE CENTRAL AND SOUTHERN PLAINS...

CITY           SKY/WX    TMP DP  RH WIND       PRES   REMARKS
OMAHA          PTCLDY    45  37  73 N7        30.12S
GRAND ISLAND   CLOUDY    48  40  73 SE5       30.11F
KANSAS CITY    CLEAR     50  31  48 N8        30.08R
WICHITA        PTCLDY    52  44  74 N6        30.07S
DODGE CITY     CLEAR     47  41  80 NE3       30.13R
OKLAHOMA CITY  CLEAR     56  48  74 NE3       30.05S
DALLAS         CLEAR     59  52  77 N3        30.02R
AMARILLO       CLEAR     51  42  71 S13       30.06R
$$




USA.gov is the U.S. government's official web portal to all federal, state and local government web resources and services.